Flag for Germany Weather past 2 weeks in Darmstadt, Hesse, Germany

Now
90 °F

Passing clouds.


Feels Like: 86 °F
Forecast: 65 / 82 °F
Wind: 5 mph from South

Location: Frankfurt-M-Flughafen Airport

Current Time: Aug 3, 2015 at 8:04:17 PM

Latest Report: Aug 3, 2015 at 7:20 PM


Visibility: N/A

Pressure: 29.95 "Hg

Humidity: 22%

Dew point: 46 °F

Location of DarmstadtLocation

Historic Weather in Darmstadt — Graph

°F

Darmstadt temperature yesterday

Maximum temperature yesterday: 88 °F (at 4:20 PM)
Minimum temperature yesterday: 54 °F (at 5:50 AM)
Average temperature yesterday: 72 °F

Past Weeks' High & Low Weather Summary

 TemperatureHumidityPressure
High91 °F (Jul 22, 2:50 PM)94% (Jul 20, 3:20 AM)30.12 "Hg (Jul 20, 3:20 AM)
Low45 °F (Jul 30, 4:50 AM)19% (Aug 2, 4:20 PM)29.62 "Hg (Jul 24, 11:20 PM)
Average69 °F57%29.91 "Hg
* Reported Jul 19 6:20 PM — Aug 3 6:50 PM, Darmstadt, Weather by CustomWeather, © 2015

Note: Actual official high and low records may vary slightly from our data, if they occured in-between our weather recording intervals... More about our weather records

Advertising

Darmstadt weather history for previous 24 hours

 ConditionsComfort  
Time TempWeatherWind HumidityBarometerVisibility
6:50 PM
Mon, Aug 3
90 °FSunny.5 mph22%29.95 "Hg10 mi
6:20 PM91 °FPassing clouds.6 mph23%29.95 "HgN/A
5:50 PM91 °FPassing clouds.9 mph20%29.95 "HgN/A
5:20 PM91 °FPassing clouds.10 mph20%29.95 "HgN/A
4:50 PM91 °FPassing clouds.10 mph21%29.98 "HgN/A
4:20 PM91 °FPassing clouds.10 mph21%29.98 "HgN/A
3:50 PM90 °FPassing clouds.9 mph24%29.98 "HgN/A
3:20 PM90 °FPassing clouds.13 mph22%29.98 "HgN/A
2:20 PM88 °FPassing clouds.14 mph24%30.01 "HgN/A
1:50 PM90 °FPassing clouds.10 mph24%30.01 "HgN/A
1:20 PM88 °FSunny.8 mph25%30.01 "Hg10 mi
12:50 PM86 °FPassing clouds.9 mph29%30.01 "HgN/A
12:20 PM84 °FSunny.6 mph31%30.04 "Hg10 mi
11:50 AM84 °FPassing clouds.8 mph31%30.04 "HgN/A
11:20 AM82 °FSunny.5 mph32%30.04 "Hg10 mi
10:50 AM81 °FSunny.5 mph34%30.04 "Hg10 mi
10:20 AM79 °FPassing clouds.3 mph37%30.04 "HgN/A
9:50 AM77 °FPassing clouds.6 mph39%30.04 "HgN/A
9:20 AM73 °FPassing clouds.6 mph44%30.04 "HgN/A
8:50 AM72 °FPassing clouds.7 mph47%30.04 "HgN/A
8:20 AM70 °FSunny.7 mph50%30.04 "Hg10 mi
7:50 AM68 °FSunny.7 mph53%30.04 "Hg10 mi
7:20 AM66 °FSunny.7 mph56%30.04 "Hg10 mi
6:50 AM64 °FClear.6 mph60%30.04 "Hg10 mi
6:20 AM64 °FClear.6 mph60%30.04 "Hg10 mi
5:50 AM63 °FClear.5 mph64%30.04 "Hg10 mi
5:20 AM63 °FPassing clouds.5 mph64%30.04 "HgN/A
4:50 AM64 °FPassing clouds.3 mph60%30.04 "HgN/A
4:20 AM64 °FClear.5 mph60%30.04 "Hg10 mi
3:50 AM64 °FClear.7 mph60%30.04 "Hg10 mi
3:20 AM64 °FMild.7 mph60%30.04 "HgN/A
2:50 AM70 °FClear.6 mph46%30.04 "Hg10 mi
2:20 AM70 °FClear.8 mph46%30.04 "Hg10 mi
1:50 AM64 °FPassing clouds.3 mph60%30.04 "HgN/A
1:20 AM68 °FClear.6 mph49%30.04 "Hg10 mi
12:50 AM70 °FClear.7 mph50%30.04 "Hg10 mi
12:20 AM68 °FClear.6 mph49%30.04 "Hg10 mi
11:50 PM
Sun, Aug 2
68 °FClear.5 mph53%30.04 "Hg10 mi
11:20 PM70 °FPassing clouds.3 mph46%30.04 "HgN/A
10:50 PM72 °FPassing clouds.6 mph44%30.04 "HgN/A
10:20 PM72 °FPassing clouds.3 mph44%30.04 "HgN/A
9:50 PM72 °FSunny.8 mph41%30.04 "Hg10 mi
9:20 PM73 °FSunny.10 mph38%30.04 "Hg10 mi
8:50 PM79 °FPassing clouds.7 mph30%30.04 "HgN/A
8:20 PM82 °FPassing clouds.3 mph28%30.04 "HgN/A
Weather by CustomWeather, © 2015

See weather overviewHow to use our weather pages